Weather History for MMSP - October, 2013

Change the Weather History Date:

Thursday, October 24, 2013

  Actual Average Record
Temperature  
Mean Temperature 54 °F -  
Max Temperature 73 °F 71 °F - ()
Min Temperature 36 °F 44 °F - ()
Degree Days  
Heating Degree Days 10    
Growing Degree Days 4 (Base 50)    
Moisture  
Dew Point 42 °F    
Average Humidity 65    
Maximum Humidity 93    
Minimum Humidity 14    
Precipitation  
Precipitation 0.00 in - - ()
Sea Level Pressure  
Sea Level Pressure 30.21 in    
Wind  
Wind Speed 3 mph ()    
Max Wind Speed 20 mph    
Max Gust Speed -    
Visibility 10.4 miles    
Events      
T = Trace of Precipitation, MM = Missing Value Source: Averaged Metar Reports

Daily Weather History Graph

Daily Weather History Graph

Search for Another Location

Airport or City:

Trip Planner

Search our weather history database for the weather conditions in past years. The results will help you decide how hot, cold, wet, or windy it might be!

Date:

Astronomy

Oct. 24, 2013 Rise Set
Actual Time 7:43 AM CDT 7:11 PM CDT
Civil Twilight 7:21 AM CDT 7:34 PM CDT
Nautical Twilight 6:54 AM CDT 8:00 PM CDT
Astronomical Twilight 6:28 AM CDT 8:26 PM CDT
Moon 11:51 PM CDT 12:31 PM CDT
Length of Visible Light 12h 12m
Length of Day
11h 27m
Waning Gibbous, 71% of the Moon is Illuminated
Oct 24
Waning Gibbous
Oct 26
Last Quarter
Nov 3
New
Nov 9
First Quarter
Nov 17
Full

Hourly Weather History & Observations

Time (CDT) Temp. Windchill Dew Point Humidity Pressure Visibility Wind Dir Wind Speed Gust Speed Precip Events Conditions
12:42 AM 48.2 °F - 39.2 °F 71% 30.05 in 10.0 mi ESE 6.9 mph - N/A   Scattered Clouds
12:50 AM 49 °F - 47 °F 92% 30.06 in 5 mi East 2.2 mph - -  
1:41 AM 46.4 °F 44.3 °F 39.2 °F 76% 30.30 in 10.0 mi SE 4.6 mph - N/A   Clear
2:41 AM 46.4 °F 44.3 °F 39.2 °F 76% 30.30 in 10.0 mi SE 4.6 mph - N/A   Clear
3:44 AM 44.6 °F - 39.2 °F 81% 30.02 in 10.0 mi Calm Calm - N/A   Clear
4:42 AM 44.6 °F - 39.2 °F 81% 30.30 in 6.0 mi Calm Calm - N/A   Clear
5:40 AM 42.8 °F - 37.4 °F 81% 30.30 in 6.0 mi Calm Calm - N/A   Clear
6:42 AM 39.2 °F - 37.4 °F 93% 30.09 in 6.0 mi Calm Calm - N/A   Clear
6:50 AM 41 °F - 40 °F 92% 30.19 in 5 mi North 2.2 mph - -  
7:45 AM 39.2 °F - 35.6 °F 87% 30.31 in 8.0 mi Calm Calm - N/A   Clear
8:40 AM 41.0 °F - 37.4 °F 87% 30.33 in 10.0 mi Calm Calm - N/A   Clear
9:40 AM 50.0 °F - 41.0 °F 71% 30.13 in 12.0 mi Calm Calm - N/A   Clear
9:50 AM 52 °F - 46 °F 71% 30.30 in 8 mi East 4.5 mph - -   Haze
10:44 AM 57.2 °F - 44.6 °F 63% 30.36 in 12.0 mi Calm Calm - N/A   Clear
11:40 AM 62.6 °F - 41.0 °F 45% 30.36 in 12.0 mi Calm Calm - N/A   Clear
12:43 PM 64.4 °F - 42.8 °F 45% 30.07 in 15.0 mi Calm Calm - N/A   Clear
12:45 PM 65 °F - 28 °F 14% 30.25 in 9 mi ENE 2.2 mph - -   Haze
1:40 PM 66.2 °F - 41.0 °F 40% 30.31 in 15.0 mi North 4.6 mph - N/A   Clear
2:43 PM 69.8 °F - 39.2 °F 33% 30.27 in 15.0 mi East 11.5 mph - N/A   Clear
3:40 PM 69.8 °F - 39.2 °F 33% 29.98 in 15.0 mi NE 13.8 mph - N/A   Scattered Clouds
3:45 PM 70 °F - 44 °F 28% 30.13 in 12 mi East 2.2 mph - -  
4:41 PM 66.2 °F - 41.0 °F 40% 30.26 in 15.0 mi ENE 19.6 mph - N/A   Scattered Clouds
5:43 PM 66.2 °F - 41.0 °F 40% 30.26 in 15.0 mi ENE 19.6 mph - N/A   Mostly Cloudy
6:46 PM 62.6 °F - 44.6 °F 52% 30.08 in 12.0 mi ENE 13.8 mph - N/A   Scattered Clouds
6:50 PM 62 °F - 55 °F 71% 30.02 in 11 mi ENE 4.5 mph - -   Haze
7:45 PM 55.4 °F - 46.4 °F 72% 30.30 in 12.0 mi Calm Calm - N/A   Scattered Clouds
8:41 PM 55.4 °F - 42.8 °F 63% 30.33 in 10.0 mi Calm Calm - N/A   Partly Cloudy
9:50 PM 54 °F - 52 °F 89% 30.06 in 5 mi East 4.5 mph - -  
9:54 PM 53.6 °F - 44.6 °F 72% 30.13 in 10.0 mi Calm Calm - N/A   Partly Cloudy
10:50 PM 50.0 °F - 44.6 °F 82% 30.37 in 10.0 mi Calm Calm - N/A   Partly Cloudy
11:44 PM 50.0 °F - 44.6 °F 82% 30.38 in 10.0 mi SE 8.1 mph - N/A   Clear